Regional Weather Roundup
Issued by NWS Cleveland, OH

Home | Current Version | Previous Version | Graphics & Text | Print | Product List | Glossary On
Versions: 1 2 3 4 5 6 7 8 9 10 11 12 13 14 15 16 17 18 19 20 21 22 23 24 25 26 27 28 29 30 31 32 33 34 35 36 37 38 39 40 41 42 43 44 45 46 47 48 49 50
526
ASUS41 KCLE 070702
RWRCLE
OHIO REGIONAL WEATHER ROUNDUP
NATIONAL WEATHER SERVICE CLEVELAND, OH
200 AM EST SUN FEB 07 2016

NOTE: "FAIR" INDICATES FEW OR NO CLOUDS BELOW 12,000 FEET WITH NO
SIGNIFICANT WEATHER AND/OR OBSTRUCTIONS TO VISIBILITY.

OHZ001>008-015>018-024>027-034-035-043-044-070800-
   NORTHWEST OHIO

CITY           SKY/WX    TMP DP  RH WIND       PRES   REMARKS
DEFIANCE       CLEAR     30  23  75 S6        30.11F WCI  24
FINDLAY        CLEAR     32  25  75 S10       30.12F WCI  24
TOLEDO EXPRESS CLEAR     29  23  78 S5        30.11F WCI  24
TOLEDO EXEC    CLEAR     28  22  78 S7        30.13F WCI  21
LIMA           CLEAR     33  24  69 S9        30.12F WCI  25
$$

OHZ009>014-019>023-028>033-038-089-070800-
   NORTHEAST OHIO

CITY           SKY/WX    TMP DP  RH WIND       PRES   REMARKS
CLE-HOPKINS    CLEAR     32  18  56 S8        30.17F WCI  25
CLE-LAKEFRONT  CLEAR     34  20  56 S8        30.15F WCI  27
CUY CO. ARPT   NOT AVBL
LORAIN-ELYRIA  CLEAR     29  19  66 S7        30.15F WCI  22
ASHTABULA      CLEAR     29  19  66 SW5       30.15F WCI  24
AKRON-CANTON   CLEAR     27  16  63 SW6       30.15F WCI  20
WOOSTER        CLEAR     26  19  74 S3        30.16F
MANSFIELD      CLEAR     29  21  72 S7        30.14F WCI  22
YOUNGSTOWN     CLEAR     29  16  58 SW6       30.14F WCI  23
$$

OHZ042-051>053-060>062-070>072-077>081-070800-
  SOUTHWEST OHIO

CITY           SKY/WX    TMP DP  RH WIND       PRES   REMARKS
CINC-COVINGTON CLEAR     33  23  66 S8        30.18F WCI  26
CINC-LUNKEN    CLEAR     27  25  92 CALM      30.21F
HAMILTON       CLEAR     26  23  88 CALM      30.19F
DAYTON         CLEAR     35  24  64 S10       30.16F WCI  27
WRIGHT-PAT AFB CLEAR     29  22  76 SE5       30.16F WCI  23
DAYTON GENERAL CLEAR     30  21  69 S7        30.16F WCI  23
WILMINGTON     CLEAR     31  23  72 S5        30.17F WCI  26
$$

OHZ036-037-039>041-045>050-054>059-063>069-073>076-082>088-070800-
  CENTRAL AND SOUTHEAST OHIO

CITY           SKY/WX    TMP DP  RH WIND       PRES   REMARKS
COLUMBUS       PTCLDY    27  20  75 CALM      30.19F
OSU AIRPORT    CLEAR     28  21  75 SE3       30.17F
BOLTON FIELD   NOT AVBL
RICKENBACK AFB NOT AVBL
NEWARK         CLEAR     24  19  81 CALM      30.18F
MARION         CLEAR     30  20  66 S9        30.15F WCI  22
LANCASTER      CLEAR     24  20  84 CALM      30.19F
ZANESVILLE     CLEAR     26  17  68 CALM      30.19F
NEW PHILLY     CLEAR     23  18  81 SE3       30.19F
$$




USA.gov is the U.S. government's official web portal to all federal, state and local government web resources and services.